sat.trackr.live / text

‹ back to catalog

STARLINK-4288

NORAD 53005 · 2022-076V

PAYLOAD ACTIVE UNKNOWN

§ Identity

Operator
Country
US
Launch date
2022-07-07
Launch site
AFETR
Launch vehicle
Mass (kg)
RCS (m²)

Purposes: comms

External: N2YO · Heavens-Above · Gunter

§ Orbital elements

Epoch: 2026-09-20T18:52:48.637056Z

Period
93.85 min
Inclination
53.1579°
Eccentricity
0.0000944
Mean motion
15.34388260 rev/d
Perigee alt
462.1 km
Apogee alt
463.4 km
Semi-major
6,840.9 km
B*
2.1558e-5
RAAN
282.7365°
Arg perigee
71.2641°
Mean anomaly
288.8464°
Rev number
23,251

§ Raw data

STARLINK-42881 53005U 22076V   26263.78667404  .00000352  00000+0  21558-4 0  99952 53005  53.1579 282.7365 0000944  71.2641 288.8464 15.34388260232519

JSON: /api/v1/satellites/53005 · /tle

For live sub-satellite position, see the globe view (requires WebGL).

§ Visibility from observer

Set your observer location to see the next 7 days of passes ≥ 10°. The values pass through the URL so the page stays shareable.

No JS? Fill the form by hand. The geolocation button needs JavaScript.